Location: ?????????
(41.1143°N, 22.7905°E)
Time: 15:18:01
(UTC+00:00)

Cosmos 990 Rocket - Pass Details

Date: 13 December 2025
Orbit: 742 x 764 km, 74.0° (Epoch: 16 January)

Event Time Altitude Azimuth Distance (km) Brightness Sun altitude
Rises 15:43:42 0° 200° (SSW) 3,165 7.9 -8.1°
Reaches altitude 10° 15:46:02 10° 202° (SSW) 2,247 7.1 -8.5°
Maximum altitude 15:51:08 81° 289° (WNW) 760 4.1 -9.3°
Drops below altitude 10° 15:56:18 10° 17° (NNE) 2,274 6.1 -10.2°
Enters shadow 15:58:29 - 19° (NNE) 3,128 6.8 -10.6°
